Regional Weather Roundup
Issued by NWS

Home | Current Version | Previous Version | Graphics & Text | Print | Product List | Glossary On
Versions: 1 2 3 4 5 6 7 8 9 10 11 12 13 14 15 16 17 18 19 20 21 22 23 24 25 26 27 28 29 30 31 32 33 34 35 36 37 38 39 40 41 42 43 44 45 46 47 48 49 50
000
ASUS43 KMPX 181210
RWRMN
WEATHER ROUNDUP FOR MINNESOTA
NATIONAL WEATHER SERVICE TWIN CITIES/CHANHASSEN MN
700 AM CDT FRI APR 18 2014


NOTE: "FAIR" INDICATES FEW OR NO CLOUDS BELOW 12,000 FEET WITH NO
SIGNIFICANT WEATHER AND/OR OBSTRUCTIONS TO VISIBILITY. N/A MEANS
CURRENT SKY AND/OR WEATHER CONDITIONS ARE NOT AVAILABLE.

MNZ060>063-068>070-181300-
   Twin Cities Metro

CITY           SKY/WX    TMP DP  RH WIND       PRES   REMARKS
TWIN CITIES    MOCLDY    29  28  96 CALM      30.37R FOG
6HR MIN TEMP:  26; 6HR MAX TEMP:  33;

ST PAUL        CLOUDY    29  27  92 CALM      30.39R
CRYSTAL        CLOUDY    24  21  88 CALM      30.35R FOG
BLAINE         CLOUDY    27  25  93 CALM      30.35R
EDEN PRAIRIE   CLOUDY    29  27  92 CALM      30.35R FOG
6HR MIN TEMP:  26; 6HR MAX TEMP:  30;

LAKEVILLE      CLOUDY    27  27 100 CALM      30.35R FOG
SOUTH ST PAUL  CLOUDY    30  28  91 CALM      30.37R FOG
LAKE ELMO      CLOUDY    28  27  93 CALM      30.37R FOG
$$
MNZ001>005-007-008-013>017-022>024-027-028-181300-
   Northwest Minnesota

CITY           SKY/WX    TMP DP  RH WIND       PRES   REMARKS
BEMIDJI        PTCLDY    20  17  86 E6        30.30S WCI  13
HALLOCK        CLOUDY    28  18  64 SE7       30.31R WCI  21
ROSEAU         CLEAR     25  16  68 E5        30.32S WCI  19
WARROAD        CLEAR     19  14  79 CALM      30.33S
THIEF RVR FALL PTCLDY    27  16  63 E7        30.31R WCI  19
CROOKSTON      PTCLDY    30  18  59 SE6       30.31R WCI  24
FOSSTON        CLOUDY    25  16  68 E5        30.30R WCI  19
DETROIT LAKES  PTCLDY    30  21  69 CALM      30.28F
MOORHEAD       CLOUDY    34  27  75 SE6       30.28S WCI  29
PARK RAPIDS    CLOUDY    28  20  71 CALM      30.29R
$$
MNZ006-009>011-018-025>026-181300-
   North Central Minnesota

CITY           SKY/WX    TMP DP  RH WIND       PRES   REMARKS
BAUDETTE       CLEAR     20  17  88 CALM      30.33R
FLAG ISLAND    CLEAR     16  10  79 CALM      30.33S
INTL FALLS     CLEAR     18  15  88 E3        30.34R
6HR MIN TEMP:  15; 6HR MAX TEMP:  21;

WASKISH        CLEAR     18  18 100 CALM      30.33R
BIG FORK       CLEAR     16  12  86 CALM      30.34R
LONGVILLE      MOCLDY    25  23  93 CALM      30.32R
GRAND RAPIDS   CLEAR     21  18  86 CALM      30.33R
CRANE LAKE     CLEAR      7   3  85 CALM      30.39R
ORR            CLEAR     10   7  85 CALM      30.33R
COOK           CLEAR     10   9  92 CALM      30.35R
$$
MNZ012-019>021-037-181300-
   Northeast Minnesota

CITY           SKY/WX    TMP DP  RH WIND       PRES   REMARKS
DULUTH         PTCLDY    21  17  84 N3        30.33R
6HR MIN TEMP:  20; 6HR MAX TEMP:  26;

ELY            CLEAR     10   7  85 CALM      30.35R
HIBBING        CLEAR     18  14  84 CALM      30.34R
EVELETH        CLEAR     16  12  86 CALM      30.35R
DULUTH HARBOR  PTCLDY    25  21  86 CALM      30.38R
TWO HARBORS    CLEAR     25  18  74 CALM      30.33S
SILVER BAY     CLEAR     19  18  93 CALM      30.34R
GRAND MARAIS     N/A     28  24  85 VRB3      30.36R
G MARAIS ARPRT CLOUDY    23  19  86 NW8       30.30R WCI  14
$$
MNZ029>031-032-039>041-046>048-054>057-064-181300-
   West Central Minnesota

CITY           SKY/WX    TMP DP  RH WIND       PRES   REMARKS
FERGUS FALLS   CLOUDY    34  21  60 E3        30.27R
WHEATON        CLOUDY    34  28  80 E9        30.29F WCI  26
MORRIS         MOCLDY    30  25  80 E7        30.29R WCI  23
ALEXANDRIA     CLOUDY    31  24  75 SE5       30.29R WCI  26
ELBOW LAKE     CLOUDY    32  26  78 SE6       30.28S WCI  26
WADENA         MOCLDY    27  21  80 NE3       30.28S
GLENWOOD       CLOUDY    28  23  80 SE3       30.30R
APPLETON       PTCLDY    30  27  86 E8        30.29S WCI  23
BENSON         MOCLDY    28  25  86 SE5       30.30R WCI  23
ORTONVILLE     CLOUDY    28  23  80 SE8       30.27S WCI  20
MADISON        MOCLDY    34  28  80 E8        30.28R WCI  27
WILLMAR        FAIR      30  25  80 E5        30.32S WCI  25
$$
MNZ033>034-036-042>043-049>051-058-059-181300-
   Central Minnesota

CITY           SKY/WX    TMP DP  RH WIND       PRES   REMARKS
ST CLOUD       CLOUDY    26  22  84 CALM      30.34R
6HR MIN TEMP:  19; 6HR MAX TEMP:  28;

SAUK CENTRE    FAIR      27  23  82 E3        30.31R
PAYNESVILLE    CLOUDY    27  24  88 CALM      30.33R
AITKIN         PTCLDY    30  23  74 CALM      30.32R
PINE RIVER     CLOUDY    28  23  80 E5        30.34R WCI  23
BRAINERD       CLOUDY    33  22  63 CALM      30.32R
STAPLES        CLOUDY    27  21  80 CALM      30.30R
LONG PRAIRIE   CLOUDY    28  23  80 CALM      30.30S
LITTLE FALLS   MOCLDY    28  21  74 CALM      30.32R
LITCHFIELD     PTCLDY    27  25  93 CALM      30.34R
BUFFALO        CLOUDY    24  21  90 CALM      30.36R FOG
MAPLE LAKE     CLOUDY    24  24  98 CALM      30.35R FOG
$$
MNZ037-044-045-052-053-181300-
   East Central Minnesota

CITY           SKY/WX    TMP DP  RH WIND       PRES   REMARKS
PRINCETON      CLOUDY    25  21  86 CALM      30.33S
MORA           CLOUDY    21  18  86 CALM      30.36R
CAMBRIDGE      CLOUDY    27  19  74 CALM      30.33R HAZE
RUSH CITY      CLOUDY    21  19  94 CALM      30.36R
MOOSE LAKE     PTCLDY    21  19  93 CALM      30.34R
HINCKLEY       FAIR      23  21  93 CALM      30.35R
CLOQUET        PTCLDY    16  14  93 CALM      30.34R
MCGREGOR       CLOUDY    28  23  80 CALM      30.34R
$$
MNZ071>073-080-081-089-090-097-098-181300-
   Southwest Minnesota

CITY           SKY/WX    TMP DP  RH WIND       PRES   REMARKS
MONTEVIDEO     CLOUDY    30  27  86 SE6       30.31R WCI  24
GRANITE FALLS  CLOUDY    30  26  83 E10       30.31S WCI  21
CANBY          CLOUDY    31  29  90 SE7       30.27S WCI  25
MARSHALL       MOCLDY    34  27  75 SE12      30.26F WCI  25
REDWOOD FALLS  CLOUDY    32  27  81 SE7       30.31R WCI  26
OLIVIA         CLOUDY    30  27  86 E6        30.31R WCI  24
PIPESTONE      MOCLDY    32  30  93 SE10      30.23R FOG     WCI  24
WINDOM         PTCLDY    30  30 100 SE7       30.29S WCI  23
WORTHINGTON    PTCLDY    28  25  86 SE7       30.29R WCI  21
JACKSON        PTCLDY    30  28  93 SE7       30.30R FOG     WCI  23
TRACY          PTCLDY    32  30  91 S8        30.28S FOG     WCI  25
SLAYTON        MOCLDY    30  30  99 SE7       30.27R FOG     WCI  23
$$
MNZ065>067-074>077-082>085-091>093-181300-
   South Central Minnesota

CITY           SKY/WX    TMP DP  RH WIND       PRES   REMARKS
MANKATO        CLOUDY    32  28  86 SE7       30.34R WCI  26
NEW ULM        CLOUDY    30  28  93 E3        30.32S
ST JAMES       CLOUDY    34  30  86 E5        30.33R FOG     WCI  30
FAIRMONT       CLOUDY    30  27  86 SE3       30.34R
GLENCOE        CLOUDY    30  27  87 CALM      30.33R FOG
FARIBAULT      CLOUDY    34  28  80 CALM      30.35R HAZE
OWATONNA       CLOUDY    32  28  86 SE3       30.33S FOG
WASECA         CLOUDY    34  32  93 CALM      30.35R FOG
ALBERT LEA     CLOUDY    30  30 100 CALM      30.33R FOG
$$
MNZ078>079-086>088-094>096-181300-
   Southeast Minnesota

CITY           SKY/WX    TMP DP  RH WIND       PRES   REMARKS
ROCHESTER      CLOUDY    29  26  89 E3        30.34R FOG
6HR MIN TEMP:  27; 6HR MAX TEMP:  31;

RED WING       CLOUDY    28  27  93 CALM      30.37R FOG
STANTON        CLOUDY    31  29  92 CALM      30.35R FOG
DODGE CENTER   CLOUDY    34  32  93 CALM      30.33R FOG
WINONA         CLOUDY    30  28  93 CALM      30.38R FOG
AUSTIN         MOCLDY    28  28 100 E3        30.32S FOG
PRESTON        CLOUDY    28  26  92 CALM      30.34R FOG
$$
ABBREVIATIONS USED IN REMARKS
   TC - TEMPERATURES IN CELSIUS
  WCI - WIND CHILL INDEX
   HX - HEAT INDEX
  VSB - VISIBILITY
$$



USA.gov is the U.S. government's official web portal to all federal, state and local government web resources and services.